Zurück zum Katalog

COSMOS 1579 COOLANT

LostLEO
NORAD 29021·DEBRIS·🇷🇺 Russia

Gestartet Jun 29, 1984 von Baikonur Cosmodrome

Loading…

Nächste Überflüge (nächste 24 Stunden)

TLE

VeraltetSource: Space-Track

Epoche: Jun 19, 2016, 08:39 UTC

1 29021U 84069AL  16171.36102603  .00046936  00000-0  37040-1 0  9991
2 29021  65.0470  78.8185 0047131 210.7837 149.0462 13.90735695561229

Verfolge COSMOS 1579 COOLANT in Echtzeit mit AllMySat

Download on the App Store